GEFSNGP_500_meanwind_096.txt.gz
Wind_Speed
13 12 11 10 9 8 7 5 4 3 3 4 6 8 9 11 13 14 16 18 19 20 21 23 24 25 26 27 28 29 30 30 31 31 30 29 28 27 26 24 22 20 18 13
13 12 11 10 9 8 7 6 5 4 3 4 5 7 9 10 12 14 15 17 18 19 20 22 23 25 26 26 27 28 29 30 30 30 30 30 29 27 26 25 24 22 19 15
13 12 11 11 10 9 8 7 6 5 5 4 5 7 9 10 11 13 14 16 17 19 20 21 22 24 25 26 26 27 28 29 30 30 29 30 30 29 28 26 25 23 20 18
14 13 12 11 10 10 9 8 7 6 6 6 6 7 9 10 11 12 14 15 17 18 19 20 21 23 24 25 25 26 27 28 29 29 29 29 29 29 29 28 26 24 21 19
14 13 12 11 10 10 9 8 8 7 7 7 8 8 9 10 12 13 14 15 16 17 18 20 21 22 23 24 25 25 26 26 27 27 28 28 28 28 28 28 27 25 22 19
14 13 12 11 10 10 9 9 8 8 8 9 9 10 10 11 12 13 14 15 16 17 18 19 20 21 22 23 24 24 25 25 25 26 26 26 27 27 27 27 26 26 24 21
14 13 12 11 10 10 11 10 10 10 10 10 11 11 12 12 13 14 15 16 17 17 18 19 20 21 22 22 23 23 24 24 24 24 25 25 25 26 26 26 25 24 24 22
14 13 12 12 12 12 12 12 12 12 12 13 13 13 13 14 15 15 16 17 17 18 19 20 20 21 21 22 22 22 23 23 23 23 23 23 23 24 24 24 23 23 22 21
15 14 14 13 13 13 14 14 14 14 14 14 15 15 16 16 17 17 17 18 18 19 20 20 21 21 21 22 22 22 22 22 22 22 22 22 22 22 22 22 22 21 20 20
15 15 15 15 15 15 15 16 16 16 16 16 17 17 18 18 18 19 19 19 19 20 21 21 22 22 22 22 22 22 22 22 22 22 22 21 21 21 21 21 20 20 19 18
17 16 16 17 17 17 18 18 18 18 19 19 19 20 20 20 20 20 21 21 21 22 22 23 23 23 23 23 23 22 22 22 22 22 21 21 21 20 20 20 19 18 18 17
19 19 19 19 19 19 20 20 20 21 21 21 21 22 22 22 22 22 22 23 23 24 24 24 24 24 24 23 23 23 23 22 22 22 21 21 21 20 19 19 18 18 17 16
22 22 22 21 22 22 22 22 22 22 23 23 23 23 24 24 24 24 25 25 26 26 26 26 26 26 25 25 25 24 24 24 24 23 22 22 21 20 20 19 18 18 17 16
24 24 24 24 24 24 24 24 24 25 25 25 25 26 26 27 27 27 27 28 28 28 28 28 28 28 28 27 27 26 26 26 26 25 24 23 23 22 21 20 19 18 18 17
26 26 26 26 27 27 27 27 27 27 27 27 28 28 29 29 30 30 30 30 30 30 30 30 31 31 30 30 29 29 28 28 28 27 26 26 25 24 23 22 21 20 19 18
29 29 29 29 29 29 29 29 29 29 30 30 30 30 31 32 32 32 32 33 33 33 33 33 33 33 33 33 32 32 31 30 30 29 28 28 28 27 26 25 24 23 22 21
31 31 31 31 31 31 32 32 32 33 33 33 33 33 34 34 34 35 35 35 35 36 35 35 35 35 35 34 34 33 32 32 32 31 31 31 30 30 29 29 28 27 25 24
34 34 34 33 33 34 34 35 35 35 35 35 35 35 36 36 37 37 37 37 38 37 37 37 37 36 36 35 35 34 34 34 34 33 33 33 33 33 32 32 31 30 29 28
36 36 36 36 36 36 36 36 37 37 37 37 37 38 38 39 39 39 38 39 39 39 39 38 38 38 37 37 37 37 37 37 37 37 37 36 36 36 35 35 35 34 33 32
38 38 38 38 38 38 38 39 39 39 39 39 40 40 41 41 40 40 40 40 40 40 40 40 40 40 40 40 40 40 40 40 40 40 40 40 40 40 39 39 39 38 38 37
40 40 40 40 40 40 41 41 41 42 42 42 43 43 43 42 42 42 42 42 42 42 41 41 42 42 42 42 42 43 43 43 44 44 44 44 44 44 44 43 43 42 42 41
41 41 42 42 42 43 43 43 44 44 44 45 45 44 44 44 44 44 43 43 43 43 43 44 44 44 44 45 45 46 46 47 47 48 48 48 48 48 48 47 47 47 46 46
43 44 44 44 45 45 45 46 46 46 46 46 46 46 45 45 45 44 44 44 45 45 46 46 47 47 48 48 49 50 50 50 51 51 51 51 51 51 51 51 51 51 51 50
44 45 45 45 46 46 46 46 46 46 46 46 46 45 45 45 45 45 46 46 46 47 48 49 49 50 51 51 52 52 52 53 53 53 53 53 53 54 54 54 54 54 54 54
43 44 44 44 44 44 45 45 45 45 45 45 45 45 45 45 45 46 46 47 48 49 50 50 51 52 52 53 53 54 54 54 55 55 55 55 55 55 55 55 55 56 56 56
42 42 42 43 43 43 44 44 44 43 44 44 44 44 44 44 45 46 47 48 49 50 51 52 52 53 54 54 55 55 56 56 57 57 57 56 56 56 55 55 56 57 57 57
43 43 43 43 43 43 43 43 43 43 43 43 43 44 45 45 46 47 48 49 50 50 51 52 53 53 54 55 56 57 57 57 57 57 57 56 56 56 55 55 55 56 57 58

GEFSNGP_500_meanwind_102.txt.gz
Wind_Speed
16 16 15 14 14 14 13 13 13 12 11 10 9 8 8 9 10 11 12 14 15 17 18 19 21 22 24 25 26 27 28 29 29 30 30 31 30 30 30 29 27 24 22 20
17 17 17 15 14 14 14 14 13 12 12 11 10 10 9 10 10 11 13 14 16 17 18 19 20 21 23 24 25 26 27 28 28 29 29 29 30 29 30 29 27 25 22 21
17 16 16 15 14 14 14 14 13 13 13 12 12 11 11 11 11 12 13 14 16 17 18 19 20 21 22 23 25 26 26 27 27 27 28 28 29 29 29 29 28 25 23 21
16 15 15 14 13 14 14 14 14 14 13 13 13 13 12 12 12 13 14 15 16 17 18 19 20 21 22 23 24 25 25 26 26 26 27 27 27 28 28 28 27 26 24 22
16 16 15 14 13 14 14 14 14 14 14 14 14 14 13 13 14 14 15 16 17 18 19 19 20 21 22 23 23 24 25 25 25 25 26 26 26 26 26 26 26 26 24 23
16 16 15 16 12 14 15 15 14 15 15 15 15 15 14 14 15 15 16 17 18 18 19 20 20 21 21 22 23 24 24 24 24 24 24 24 25 25 25 24 24 24 24 23
16 17 18 16 13 15 16 15 14 15 15 15 15 16 15 16 16 16 17 18 18 19 20 20 21 21 22 22 23 23 24 24 24 24 24 24 24 24 24 23 23 23 23 22
18 19 19 16 16 17 16 15 16 16 16 16 16 16 17 17 17 18 18 19 20 20 21 21 21 22 22 23 23 24 24 24 24 24 23 23 23 23 23 22 22 22 22 21
20 20 18 17 17 18 18 18 18 18 17 17 18 18 18 18 19 19 20 20 21 21 21 21 22 22 23 23 24 24 24 24 24 24 24 23 23 23 22 22 21 21 21 21
20 20 19 19 19 19 20 19 19 19 19 19 19 20 20 20 21 21 21 22 22 22 22 22 23 23 24 24 24 25 25 25 25 25 24 24 23 23 22 22 21 21 21 20
21 21 20 20 20 21 21 21 21 21 21 21 22 22 22 22 23 23 23 23 23 23 24 24 24 24 25 26 26 26 26 26 26 26 25 25 24 24 23 23 22 21 20 20
23 23 23 22 22 22 23 23 23 23 23 23 23 24 24 24 24 24 25 25 25 25 25 26 26 26 27 27 28 28 28 28 27 27 27 26 26 25 25 24 23 23 21 20
25 25 25 25 24 25 25 25 25 25 25 25 25 25 26 26 26 26 26 26 27 27 27 27 28 28 29 29 29 29 29 29 28 29 29 28 28 27 26 25 25 24 23 22
28 28 28 27 27 27 27 27 28 28 27 27 27 27 27 27 27 27 28 28 28 28 29 29 30 30 31 31 31 30 30 30 30 30 30 30 29 29 28 27 26 25 25 24
30 31 31 30 30 30 30 30 30 29 29 29 29 29 29 29 29 29 30 30 30 30 30 30 31 31 31 31 31 32 31 31 31 31 31 30 30 29 29 28 27 27 26 26
33 34 33 32 32 32 32 32 31 31 31 31 31 31 31 31 31 31 32 32 32 31 32 32 32 32 32 33 33 33 33 33 33 32 32 32 31 31 30 30 29 29 28 28
36 36 35 35 35 34 34 34 33 33 33 33 33 33 33 33 33 34 34 34 34 34 34 34 34 35 35 35 35 35 35 35 34 34 34 34 33 33 32 32 32 31 31 31
37 38 38 37 37 37 36 36 35 35 35 35 35 35 35 35 36 35 35 36 36 36 36 37 37 37 37 37 37 37 37 37 36 36 36 36 35 35 35 35 35 35 34 35
39 39 39 39 39 39 39 38 38 38 38 38 38 37 37 37 38 38 37 38 38 39 39 39 40 40 40 40 40 39 39 38 38 38 37 37 37 37 37 38 38 38 38 38
41 41 41 41 41 41 40 40 40 40 39 39 39 39 39 40 40 40 40 41 41 42 42 42 42 42 42 42 41 40 40 39 39 39 39 39 39 40 41 41 42 42 42 42
42 42 42 42 42 42 42 42 42 42 42 42 42 42 42 42 42 43 43 43 43 43 43 43 44 44 44 43 42 41 41 41 41 41 42 42 43 43 44 44 44 44 45 45
43 44 43 43 43 43 44 44 44 44 44 44 44 44 45 45 45 45 45 45 45 44 45 45 45 44 43 42 42 42 43 43 44 44 45 45 45 46 46 47 47 47 47 48
43 44 44 44 44 44 44 45 45 45 45 46 46 46 46 46 46 46 46 46 46 46 46 46 45 44 43 43 43 44 45 45 46 46 47 47 48 49 49 49 50 50 51 51
44 45 45 46 46 46 46 46 46 47 47 47 47 47 47 47 47 47 47 47 47 47 46 45 44 44 44 44 45 45 46 47 47 48 48 49 50 51 52 52 53 53 54 54
44 45 46 46 47 47 47 47 47 47 48 48 48 48 48 48 47 47 47 46 46 46 45 44 44 44 45 45 46 46 47 47 48 49 50 51 52 53 54 54 55 55 55 55
45 45 46 46 46 47 47 47 47 47 48 47 47 47 47 47 47 46 46 45 45 45 44 44 44 45 46 46 47 47 48 49 49 51 52 53 54 54 55 55 55 56 56 56
45 45 46 46 46 46 46 46 46 46 46 47 47 46 46 46 45 45 45 45 45 44 44 45 45 46 46 47 47 48 49 50 51 52 53 54 55 55 55 55 56 56 56 56

GEFSNGP_500_meanwind_108.txt.gz
Wind_Speed
16 15 15 14 13 13 13 13 13 12 11 9 8 7 7 7 7 8 9 10 11 13 14 15 17 18 19 21 22 23 24 24 25 25 26 26 26 26 26 25 24 23 23 21
19 18 17 15 14 14 13 13 13 13 12 11 10 9 8 8 9 9 10 11 12 13 14 15 17 18 19 20 21 22 23 24 24 25 25 25 25 25 25 25 24 23 22 21
21 21 19 17 16 15 14 14 14 13 13 12 11 10 9 9 10 10 11 11 12 13 14 15 17 18 19 19 20 21 23 23 24 24 24 24 24 24 24 24 23 22 22 21
21 21 21 16 17 17 16 15 15 14 13 12 12 11 11 11 11 11 12 12 13 14 15 15 17 18 18 19 20 21 22 23 23 23 23 23 23 23 23 23 22 22 22 21
20 21 19 17 17 17 17 16 15 14 14 13 12 12 12 12 12 12 13 13 14 14 15 16 16 17 18 19 19 20 21 22 23 23 23 23 22 22 22 22 22 21 21 20
19 19 18 16 16 17 17 15 15 15 14 14 13 13 13 13 13 13 14 14 15 15 16 16 17 18 18 19 19 20 21 22 22 23 23 22 22 22 22 22 21 21 20 20
18 18 16 15 16 16 16 14 15 15 15 14 14 14 14 14 14 14 14 15 15 16 16 17 18 18 19 19 20 21 21 22 22 23 23 22 22 22 22 22 21 21 20 19
19 18 15 15 16 16 16 16 15 15 15 15 14 14 14 14 15 15 15 16 16 16 17 18 18 19 19 20 21 21 21 22 23 23 23 23 22 22 22 22 22 21 20 20
19 18 17 17 17 17 17 16 16 16 16 16 15 15 15 16 16 16 17 17 17 18 18 19 19 20 20 21 21 22 22 23 23 24 24 24 23 23 23 22 22 22 21 20
20 18 18 18 18 18 18 18 17 17 17 17 16 16 17 17 17 18 18 18 19 19 20 20 21 21 21 22 22 23 23 24 24 24 24 24 24 24 24 23 23 23 22 21
22 20 20 19 19 19 19 19 18 18 18 18 18 18 18 18 19 19 20 20 20 21 21 21 22 22 22 23 23 24 25 25 25 25 24 24 24 25 25 24 24 23 23 21
24 23 24 22 22 21 21 20 20 20 20 20 19 19 19 20 20 21 21 21 21 22 22 22 23 23 24 24 25 25 25 25 25 25 25 25 26 26 26 26 26 25 24 22
26 26 26 25 24 24 23 23 23 22 22 22 22 22 22 22 22 22 22 23 23 23 24 24 25 25 25 26 26 26 26 26 26 26 26 27 27 28 28 28 27 26 25 23
29 28 28 27 27 27 27 26 26 25 25 25 25 25 24 24 24 24 24 25 25 25 25 26 26 26 27 27 27 27 27 27 28 28 29 29 29 29 29 28 27 27 26 25
31 31 31 30 30 30 30 30 29 28 28 27 27 27 27 26 26 26 26 26 27 27 27 27 27 27 28 28 28 28 29 29 30 31 31 31 31 31 29 28 27 27 28 28
34 34 33 33 32 32 32 32 31 31 30 30 29 29 29 28 28 28 28 28 28 28 28 28 28 29 29 29 29 30 31 32 32 33 33 33 33 32 31 30 29 29 29 30
36 35 34 35 34 34 34 34 33 32 32 31 31 31 30 30 30 30 29 29 29 29 29 30 30 30 30 31 31 32 33 34 34 34 35 34 34 33 32 32 32 32 32 32
37 36 36 36 36 36 36 35 35 34 34 33 33 33 32 32 31 31 31 31 31 31 31 32 32 32 33 33 34 35 35 36 36 37 37 36 35 34 34 34 34 34 34 34
39 38 38 37 37 38 38 37 37 36 36 36 36 35 35 34 34 34 34 33 33 34 34 34 35 35 35 36 36 37 37 38 38 38 37 37 36 36 36 36 36 36 36 37
39 40 40 39 39 39 38 38 38 38 38 38 38 37 37 37 37 37 36 36 36 36 37 37 37 38 38 38 39 39 39 39 39 39 38 37 37 37 38 38 38 38 39 39
40 40 40 40 40 40 40 40 40 40 40 40 39 39 39 39 39 39 39 39 39 39 39 39 39 40 40 40 40 40 40 40 40 39 39 38 38 39 40 40 40 41 41 42
40 40 40 40 41 40 40 40 40 41 41 41 40 40 40 40 40 41 41 41 41 41 41 41 41 41 41 41 41 41 41 41 41 40 39 39 40 40 41 41 42 43 43 44
40 40 40 40 41 41 41 41 40 41 41 41 41 41 41 42 42 42 42 42 42 42 42 42 42 42 42 42 42 42 42 42 41 40 40 41 41 42 42 42 43 43 44 45
40 41 40 40 40 40 41 41 42 42 42 42 42 42 42 43 43 43 43 43 43 43 43 43 43 44 44 43 43 43 43 42 42 41 42 42 42 42 43 43 44 45 46 46
40 40 40 40 40 40 41 42 42 43 43 43 44 44 44 44 44 44 44 44 44 44 45 45 45 45 44 44 44 43 43 42 42 42 42 42 43 43 44 45 46 47 48 48
41 41 41 40 41 41 42 42 42 43 43 44 44 45 45 45 45 45 45 45 45 45 45 45 45 44 44 44 43 43 43 42 42 42 43 43 44 44 45 46 47 48 49 50
40 40 41 41 41 41 41 41 41 41 42 43 43 44 44 44 44 44 44 45 45 44 44 44 44 44 43 43 43 42 42 42 42 43 43 43 44 45 46 48 48 49 50 51

GEFSNGP_500_meanwind_114.txt.gz
Wind_Speed
14 14 15 14 14 13 13 13 13 11 11 12 12 12 12 11 11 10 9 9 9 10 10 11 12 13 15 16 17 19 20 20 21 22 23 24 24 24 24 24 24 24 22 22
14 15 15 15 14 14 14 14 13 12 11 13 12 12 13 13 12 11 10 10 10 10 11 11 12 13 15 16 17 18 19 20 20 21 22 23 23 24 24 23 23 23 23 22
16 17 17 15 14 15 15 15 15 14 13 14 13 13 14 14 13 12 11 11 11 11 11 12 12 13 14 16 17 18 18 19 20 21 21 22 22 23 23 22 22 23 22 21
17 18 19 15 16 17 17 16 16 15 15 15 14 14 14 14 13 13 12 12 12 12 12 12 13 14 15 16 16 17 18 19 20 20 21 21 21 22 22 22 21 22 22 21
17 18 18 16 17 18 17 16 16 16 15 15 15 15 14 14 14 13 13 13 13 12 12 13 13 14 15 16 16 17 18 18 19 20 20 21 21 21 21 21 21 21 21 21
18 18 17 15 17 18 17 16 16 17 16 16 16 16 15 15 15 14 14 14 14 13 13 13 14 14 15 16 17 17 18 18 19 20 20 20 20 20 21 21 21 21 20 20
18 18 16 15 16 17 17 16 17 18 18 17 17 17 17 16 15 15 15 15 15 14 14 14 15 15 16 16 17 17 18 18 19 20 20 20 20 20 20 20 21 21 20 20
19 18 16 17 17 17 17 18 18 18 18 19 19 18 18 17 17 16 16 16 16 15 15 15 16 16 16 17 17 18 18 19 19 20 20 20 20 20 20 20 21 21 20 20
20 19 19 19 19 19 20 19 19 19 19 19 20 19 19 18 18 18 17 17 17 17 17 17 17 17 17 18 18 18 19 19 20 20 20 20 20 21 21 21 21 21 20 20
23 21 21 21 21 22 22 22 21 21 21 21 21 20 20 20 20 19 19 18 18 18 18 18 18 18 19 19 19 19 20 20 20 20 20 20 21 21 22 22 21 21 20 20
26 24 25 24 24 24 24 24 23 23 23 22 22 22 21 21 21 20 20 20 20 20 20 20 20 20 20 20 20 21 21 21 21 21 21 21 22 22 22 23 22 22 21 21
29 28 29 27 27 27 26 26 25 25 24 24 23 23 23 23 22 22 22 22 21 21 21 21 21 21 21 21 22 22 22 22 22 22 22 23 23 23 23 24 23 22 22 22
33 32 32 30 29 29 29 28 28 27 27 26 25 25 25 24 24 24 24 24 23 23 23 23 23 23 23 23 23 23 23 23 23 24 24 24 25 25 26 26 25 24 23 23
36 35 34 33 32 32 31 31 30 29 29 28 28 27 27 27 27 26 26 26 26 25 25 25 25 25 25 24 24 24 24 24 24 25 25 26 26 27 27 28 27 26 25 25
37 37 36 36 35 34 34 33 32 31 30 30 30 30 30 29 29 29 29 28 28 27 27 27 27 27 26 26 26 26 26 26 26 26 27 27 27 28 29 29 28 27 27 27
39 39 38 37 37 37 36 36 34 33 33 32 32 32 32 32 31 31 31 30 30 29 29 29 28 28 28 28 27 27 27 28 28 28 28 29 29 29 29 29 28 28 28 28
41 40 40 39 38 38 38 37 37 36 35 35 35 35 34 34 33 33 33 32 32 31 31 30 30 30 30 29 29 29 29 30 30 30 30 30 31 30 30 30 29 30 30 30
42 41 41 41 40 40 39 39 39 38 37 37 37 36 36 36 35 35 35 34 34 33 33 32 32 32 32 32 32 32 32 32 32 32 32 32 32 32 32 32 32 32 32 32
42 42 41 41 41 41 41 40 40 40 39 39 38 38 38 37 37 37 37 36 36 35 35 35 34 34 34 34 34 34 34 34 34 34 34 34 34 34 34 34 34 34 35 35
42 43 43 42 41 41 41 41 41 41 41 40 40 40 39 39 39 39 38 38 38 37 37 37 37 36 36 36 37 37 37 37 37 37 36 36 36 36 36 36 36 36 37 37
43 42 42 41 41 41 41 41 41 41 40 40 41 41 41 41 40 40 40 40 39 39 39 39 39 39 39 39 39 39 39 39 39 38 38 38 38 37 38 38 38 38 39 39
42 42 42 42 41 41 41 41 41 41 41 41 41 41 41 42 42 42 41 41 41 41 41 41 41 41 41 40 40 40 40 40 40 40 40 40 39 39 40 40 40 40 40 41
42 42 42 42 42 42 42 41 41 41 41 41 41 42 42 42 42 42 43 42 42 42 42 42 42 42 42 42 41 41 41 41 41 41 41 41 41 41 42 42 42 42 42 42
43 43 42 42 42 42 42 42 42 42 42 42 42 42 42 42 43 43 43 43 43 43 43 43 43 43 43 42 42 42 41 41 42 42 42 42 43 43 43 44 44 44 43 43
42 42 42 42 42 42 42 42 43 43 43 43 43 43 43 43 43 43 43 43 44 44 44 43 44 43 43 42 42 42 42 43 43 43 43 44 44 44 44 45 44 44 44 44
41 41 41 41 42 42 41 41 42 43 44 44 44 43 43 43 43 43 44 44 44 45 45 45 44 44 43 43 43 43 43 44 44 44 44 44 44 45 45 45 45 44 44 44
41 41 41 41 41 41 41 40 41 41 42 43 44 43 43 43 43 43 43 43 43 44 44 45 45 44 44 44 44 44 44 44 44 44 44 44 45 45 44 44 44 43 43 43